EW7237 Weather Reports


time (UTC)temp
F
wind
direction
speed
knots
gust
knots
rain 1hr
in
rain 24hr
in
rain mn
in
humidity
%
barometer
mb
20260904044538 59 117 0.0 0.0 0.00 0.00 0.00 80 1019.1
20260904043119 60 117 0.0 0.0 0.00 0.00 0.00 79 1019.1
20260904041528 60 117 0.0 0.0 0.00 0.00 0.00 78 1019.3
20260904040042 61 117 0.0 0.0 0.00 0.00 0.00 76 1019.4
20260904034559 62 117 0.0 0.0 0.00 0.00 0.00 73 1019.4
20260904033010 63 117 0.0 0.0 0.00 0.00 0.00 72 1019.3
20260904031529 63 117 0.0 0.9 0.00 0.00 0.00 72 1019.5
20260904030057 63 117 0.0 0.0 0.00 0.00 0.00 71 1019.5
20260904024533 64 117 0.0 0.0 0.00 0.00 0.00 71 1019.6
20260904023012 64 117 0.0 0.0 0.00 0.00 0.00 70 1019.6
20260904021536 66 117 0.0 0.0 0.00 0.00 0.00 66 1019.6
20260904020051 67 117 0.0 0.0 0.00 0.00 0.00 61 1019.8
20260904014514 66 117 0.0 0.9 0.00 0.00 0.00 61 1019.8
20260904013032 66 117 0.0 0.9 0.00 0.00 0.00 63 1019.8
20260904011547 64 117 0.0 0.9 0.00 0.00 0.00 67 1019.9
20260904010002 63 117 0.0 0.0 0.00 0.00 0.00 76 1019.9
20260904004522 63 117 0.0 0.0 0.00 0.00 0.00 77 1020.0
20260904003041 63 117 0.0 0.0 0.00 0.00 0.00 76 1020.1
20260904001601 63 117 0.0 0.0 0.00 0.00 0.00 76 1020.2
20260904000014 63 117 0.0 0.0 0.00 0.00 0.00 76 1020.4
20260903234521 63 117 0.0 0.0 0.00 0.00 0.00 76 1020.5
20260903233040 64 117 0.0 0.0 0.00 0.00 0.00 75 1020.6
20260903231612 64 117 0.0 0.0 0.00 0.00 0.00 75 1020.7
20260903230035 64 117 0.0 0.0 0.00 0.00 0.00 75 1020.7
20260903224600 64 117 0.0 0.0 0.00 0.00 0.00 74 1020.7
20260903223013 64 117 0.0 0.0 0.00 0.00 0.00 74 1020.9
20260903221535 64 117 0.0 0.0 0.00 0.00 0.00 75 1020.9
20260903220034 64 117 0.0 0.0 0.00 0.00 0.00 74 1020.9
20260903214602 64 117 0.0 0.0 0.00 0.00 0.00 73 1020.7
20260903213024 64 117 0.0 0.0 0.00 0.00 0.00 72 1020.7
20260903211537 64 117 0.0 0.0 0.00 0.00 0.00 72 1020.3
20260903210002 65 117 0.0 0.0 0.00 0.00 0.00 72 1020.7
20260903204542 64 117 0.0 0.0 0.00 0.00 0.00 74 1020.9
20260903203003 65 117 0.0 0.0 0.00 0.00 0.00 71 1020.8
20260903201539 65 117 0.0 0.0 0.00 0.00 0.00 69 1020.6
20260903200052 66 117 0.0 0.0 0.00 0.00 0.00 67 1020.3
20260903194559 67 117 0.0 0.0 0.00 0.00 0.00 65 1020.3
20260903193008 69 117 0.0 0.0 0.00 0.00 0.00 62 1019.9
20260903191541 70 117 0.0 0.0 0.00 0.00 0.00 56 1020.0
20260903184511 71 117 0.0 0.0 0.00 0.00 0.00 55 1019.9
20260903183027 71 117 0.0 1.7 0.00 0.00 0.00 54 1019.6
20260903181550 71 117 0.0 0.0 0.00 0.00 0.00 53 1019.7
20260903180007 72 117 0.0 0.0 0.00 0.00 0.00 53 1019.5
20260903174535 73 117 0.0 0.0 0.00 0.00 0.00 51 1019.2
20260903173057 73 117 0.0 2.6 0.00 0.00 0.00 50 1019.2
20260903171527 73 117 0.0 4.3 0.00 0.00 0.00 49 1019.4
20260903170044 74 117 0.0 2.6 0.00 0.00 0.00 49 1019.3
20260903164601 74 117 0.0 2.6 0.00 0.00 0.00 48 1019.3
20260903163030 74 117 0.0 6.1 0.00 0.00 0.00 46 1019.2
20260903161544 75 117 0.0 6.1 0.00 0.00 0.00 45 1019.3
20260903160106 75 117 2.6 11.3 0.00 0.00 0.00 43 1019.2
20260903154519 76 117 0.9 9.6 0.00 0.00 0.00 41 1019.3
20260903153033 77 117 0.9 12.2 0.00 0.00 0.00 43 1019.3
20260903151504 76 117 0.0 8.7 0.00 0.00 0.00 43 1019.3
20260903150032 77 117 0.0 6.1 0.00 0.00 0.00 42 1019.2
20260903144542 77 117 1.7 7.8 0.00 0.00 0.00 45 1019.4
20260903143101 76 117 4.3 12.2 0.00 0.00 0.00 46 1019.5
20260903141512 76 117 2.6 13.0 0.00 0.00 0.00 47 1019.6
20260903140025 76 117 2.6 11.3 0.00 0.00 0.00 45 1019.6
20260903134542 76 116 2.6 11.3 0.00 0.00 0.00 47 1019.6
20260903133006 76 117 1.7 9.6 0.00 0.00 0.00 47 1019.6
20260903131519 77 117 4.3 13.0 0.00 0.00 0.00 45 1019.7
20260903130032 77 116 0.9 10.4 0.00 0.00 0.00 46 1019.5
20260903124504 77 116 2.6 10.4 0.00 0.00 0.00 46 1019.6
20260903123032 77 116 2.6 11.3 0.00 0.00 0.00 48 1019.8
20260903121603 78 116 6.1 11.3 0.00 0.00 0.00 45 1019.8
20260903120040 78 115 2.6 11.3 0.00 0.00 0.00 46 1020.0
20260903114617 77 115 2.6 11.3 0.00 0.00 0.00 47 1019.9
20260903113021 78 115 0.9 8.7 0.00 0.00 0.00 45 1020.0
20260903111617 78 115 5.2 13.9 0.00 0.00 0.00 47 1020.0
20260903110015 78 115 2.6 13.9 0.00 0.00 0.00 48 1019.9
20260903104537 77 115 0.9 11.3 0.00 0.00 0.00 48 1020.1
20260903103105 76 115 0.9 7.0 0.00 0.00 0.00 51 1020.1
20260903101520 75 115 0.0 6.1 0.00 0.00 0.00 52 1020.4
20260903100049 76 115 0.9 8.7 0.00 0.00 0.00 51 1020.5
20260903094510 77 115 0.0 7.0 0.00 0.00 0.00 50 1020.7
20260903093057 76 115 0.0 4.3 0.00 0.00 0.00 52 1020.8
20260903091514 74 115 1.7 7.8 0.00 0.00 0.00 54 1021.0
20260903090040 74 115 0.0 4.3 0.00 0.00 0.00 54 1020.9
20260903084547 73 115 0.9 10.4 0.00 0.00 0.00 55 1020.9
20260903083004 73 115 0.0 1.7 0.00 0.00 0.00 55 1020.9
20260903081533 71 115 0.9 6.1 0.00 0.00 0.00 57 1020.8
20260903080046 72 115 0.0 0.0 0.00 0.00 0.00 58 1020.9
20260903074517 71 115 0.0 6.1 0.00 0.00 0.00 58 1020.9
20260903073027 70 115 0.0 0.0 0.00 0.00 0.00 62 1021.1
20260903071631 67 115 0.0 0.0 0.00 0.00 0.00 71 1021.4
20260903070022 63 115 0.0 0.9 0.00 0.00 0.00 74 1021.3
20260903064530 62 115 0.0 0.0 0.00 0.00 0.00 76 1021.3
20260903063106 59 115 0.0 0.0 0.00 0.00 0.00 84 1021.2
20260903061539 57 115 0.0 0.0 0.00 0.00 0.00 87 1021.3
20260903054544 51 115 0.0 0.0 0.00 0.00 0.00 95 1021.2
20260903053103 50 115 0.0 0.0 0.00 0.00 0.00 94 1021.1
20260903051519 50 115 0.0 0.0 0.00 0.00 0.00 94 1021.1
20260903050041 50 115 0.0 0.0 0.00 0.00 0.00 94 1021.1